Regional Weather Roundup
Issued by NWS Bismarck, ND

Home | Current Version | Previous Version | Text Only | Print | Product List | Glossary On
Versions: 1 2 3 4 5 6 7 8 9 10 11 12 13 14 15 16 17 18 19 20 21 22 23 24 25 26 27 28 29 30 31 32 33 34 35 36 37 38 39 40 41 42 43 44 45 46 47 48 49 50
000
ASUS43 KBIS 210010
RWRBIS

NWR BROADCAST TEXT
NATIONAL WEATHER SERVICE BISMARCK ND
700 PM CDT WED SEP 20 2017

NOTE: "FAIR" INDICATES FEW OR NO CLOUDS BELOW 12,000 FEET WITH NO
SIGNIFICANT WEATHER AND/OR OBSTRUCTIONS TO VISIBILITY.


CITY           SKY/WX    TMP DP  RH WIND       PRES   REMARKS
WILLISTON      CLEAR     64  33  31 SW8       29.59S
MINOT          CLEAR     68  30  24 S13G23    29.63R
MINOT AFB      CLEAR     67  30  25 SW14      29.61R
BISMARCK       CLEAR     69  36  29 S8        29.72R
DICKINSON      CLEAR     66  26  22 SW16      29.66R
GARRISON         N/A     65  34  31 SW10      29.66R
HETTINGER ARPT CLEAR     64  27  24 SW13      29.71S
JAMESTOWN      CLEAR     66  39  37 S10       29.76R
CARRINGTON     FAIR      66  39  37 S10       29.75R
HAZEN          FAIR      66  32  28 SW9       29.68S
LINTON         FAIR      66  37  34 S9        29.76R
MANDAN         FAIR      66  37  34 S10       29.72S
RUGBY          FAIR      64  39  39 SW9       29.66R
STANLEY        FAIR      64  28  25 SW18G28   29.64S
TIOGA          FAIR      63  32  31 SW12      29.62S
WATFORD CITY   FAIR      66  28  24 SW10      29.61S
$$

CITY           SKY/WX    TMP DP  RH WIND       PRES   REMARKS
GRAND FORKS    PTCLDY    66  44  45 S8        29.74R
GRAND FORKS AF CLEAR     66  41  40 W7        29.74R
DEVILS LAKE    CLEAR     66  43  43 SW10      29.72R
FARGO          CLEAR     68  42  38 S13       29.80R
CANDO          FAIR      64  37  36 SW9       29.70S
CAVALIER       FAIR      66  39  37 SW13      29.70R
GRAFTON        FAIR      64  43  45 SW10      29.75R
GWINNER        CLEAR     66  43  42 CALM      29.81R
LANGDON        FAIR      64  37  36 SW14      29.70R
ROLLA          FAIR      63  34  34 SW16      29.67R
WALHALLA       FAIR     N/A N/A N/A SW10G20   29.68R
$$

CITY           SKY/WX    TMP DP  RH WIND       PRES   REMARKS
ABERDEEN       CLEAR     70  38  31 S6        29.79R
MOBRIDGE       CLEAR     71  38  29 S5        29.74R
BUFFALO          N/A     68  27  21 SW9       29.64R
RAPID CITY     CLEAR     72  28  20 SW16      29.74S
GLASGOW        MOSUNNY   64  29  26 W18       29.53R
SIDNEY         CLEAR     67  27  22 SW18G24   29.58F
WOLF POINT     MOCLDY    66  32  28 SW13G21   29.56R
GLENDIVE         N/A     68  29  23 SW8       29.61S
MILES CITY     CLOUDY    68  28  22 SW6       29.59F
BAKER          CLEAR     67  24  19 SW14G23   29.67R
$$

CITY           SKY/WX    TMP DP  RH WIND       PRES   REMARKS
BILLINGS       MOSUNNY   65  30  27 SW15G23   29.60R
GREAT FALLS    CLOUDY    53  32  44 SW20G26   29.55F
REGINA         PTCLDY    61  30  31 SW13      29.49R
ESTEVAN        MOCLDY    63  30  29 SW13G23   29.58R
$$




USA.gov is the U.S. government's official web portal to all federal, state and local government web resources and services.